TimeEDT,TemperatureF,Dew PointF,Humidity,Sea Level PressureIn,VisibilityMPH,Wind Direction,Wind SpeedMPH,Gust SpeedMPH,PrecipitationIn,Events,Conditions,WindDirDegrees,DateUTC
12:53 AM,69.1,66.9,93,29.72,6.0,Calm,Calm,-,N/A,,Mostly Cloudy,0,2013-06-26 04:53:00
1:53 AM,69.1,66.9,93,29.71,5.0,Calm,Calm,-,N/A,,Scattered Clouds,0,2013-06-26 05:53:00
2:53 AM,69.1,66.9,93,29.71,7.0,Calm,Calm,-,N/A,,Mostly Cloudy,0,2013-06-26 06:53:00
3:53 AM,69.1,66.9,93,29.70,8.0,Calm,Calm,-,N/A,,Overcast,0,2013-06-26 07:53:00
4:53 AM,69.1,66.9,93,29.73,6.0,Calm,Calm,-,N/A,,Overcast,0,2013-06-26 08:53:00
5:28 AM,68.0,66.2,94,29.73,3.0,Calm,Calm,-,N/A,,Overcast,0,2013-06-26 09:28:00
5:42 AM,68.0,66.2,94,29.73,3.0,Calm,Calm,-,N/A,,Overcast,0,2013-06-26 09:42:00
5:53 AM,69.1,66.9,93,29.73,3.0,Calm,Calm,-,N/A,,Overcast,0,2013-06-26 09:53:00
6:53 AM,70.0,68.0,93,29.74,4.0,Calm,Calm,-,N/A,,Scattered Clouds,0,2013-06-26 10:53:00
7:53 AM,73.0,69.1,87,29.74,10.0,Calm,Calm,-,N/A,,Clear,0,2013-06-26 11:53:00
8:53 AM,75.9,69.1,79,29.76,10.0,Calm,Calm,-,N/A,,Clear,0,2013-06-26 12:53:00
9:53 AM,77.0,68.0,74,29.77,10.0,Calm,Calm,-,N/A,,Clear,0,2013-06-26 13:53:00
10:43 AM,77.0,69.8,78,29.77,10.0,Calm,Calm,-,0.01,,Mostly Cloudy,0,2013-06-26 14:43:00
10:53 AM,77.0,69.1,76,29.77,10.0,Calm,Calm,-,0.01,,Mostly Cloudy,0,2013-06-26 14:53:00
11:39 AM,77.0,69.8,78,29.77,10.0,Calm,Calm,-,N/A,,Scattered Clouds,0,2013-06-26 15:39:00
11:53 AM,77.0,70.0,79,29.77,10.0,Variable,4.6,-,N/A,,Clear,0,2013-06-26 15:53:00
12:53 PM,77.0,69.1,76,29.78,10.0,NE,3.5,-,N/A,,Mostly Cloudy,50,2013-06-26 16:53:00
1:53 PM,73.0,69.1,87,29.78,8.0,SSE,3.5,-,0.00,Rain,Light Rain,150,2013-06-26 17:53:00
2:06 PM,71.6,69.8,94,29.78,1.8,SE,4.6,-,0.15,Rain,Rain,130,2013-06-26 18:06:00
2:13 PM,71.6,69.8,94,29.78,0.8,ESE,3.5,-,0.26,Rain,Heavy Rain,120,2013-06-26 18:13:00
2:22 PM,71.6,69.8,94,29.78,1.2,SE,3.5,-,0.36,Rain,Heavy Rain,130,2013-06-26 18:22:00
2:30 PM,71.6,69.8,94,29.79,1.8,Calm,Calm,-,0.38,Rain,Rain,0,2013-06-26 18:30:00
2:43 PM,71.6,69.8,94,29.79,1.2,ESE,3.5,-,0.50,Rain,Heavy Rain,110,2013-06-26 18:43:00
2:53 PM,71.1,69.1,93,29.80,0.8,SE,5.8,-,0.67,Rain,Heavy Rain,130,2013-06-26 18:53:00
3:03 PM,66.2,66.2,100,29.80,1.0,East,6.9,-,0.12,Rain,Heavy Rain,100,2013-06-26 19:03:00
3:24 PM,64.4,62.6,94,29.82,2.0,Variable,6.9,-,0.25,Rain,Rain,0,2013-06-26 19:24:00
3:38 PM,62.6,60.8,94,29.82,1.8,ESE,5.8,-,0.32,Rain,Rain,120,2013-06-26 19:38:00
3:53 PM,63.0,61.0,93,29.83,2.5,Variable,6.9,-,0.35,Rain,Rain,0,2013-06-26 19:53:00
4:01 PM,62.6,60.8,94,29.83,3.0,East,8.1,-,0.02,Rain,Rain,100,2013-06-26 20:01:00
4:20 PM,62.6,60.8,94,29.83,5.0,East,6.9,-,0.05,Rain,Light Rain,90,2013-06-26 20:20:00
4:53 PM,61.0,59.0,93,29.84,4.0,East,5.8,17.3,0.10,Rain,Rain,100,2013-06-26 20:53:00
5:53 PM,60.1,57.9,93,29.84,5.0,East,6.9,-,0.07,Rain,Light Rain,90,2013-06-26 21:53:00
6:53 PM,60.1,57.9,93,29.86,4.0,East,4.6,-,0.07,Rain,Rain,100,2013-06-26 22:53:00
7:53 PM,60.1,57.9,93,29.87,7.0,East,3.5,-,0.04,Rain,Light Rain,100,2013-06-26 23:53:00
8:09 PM,60.8,57.2,88,29.86,5.0,Calm,Calm,-,0.01,Rain,Light Rain,0,2013-06-27 00:09:00
8:53 PM,59.0,57.9,96,29.87,10.0,NE,3.5,-,0.01,,Overcast,50,2013-06-27 00:53:00
9:44 PM,60.8,57.2,88,29.89,9.0,ENE,3.5,-,N/A,,Overcast,70,2013-06-27 01:44:00
9:53 PM,60.1,57.9,93,29.89,10.0,Calm,Calm,-,N/A,,Overcast,0,2013-06-27 01:53:00
10:48 PM,60.8,57.2,88,29.89,8.0,Calm,Calm,-,N/A,,Overcast,0,2013-06-27 02:48:00
10:53 PM,60.1,57.9,93,29.89,8.0,Calm,Calm,-,N/A,,Overcast,0,2013-06-27 02:53:00
11:34 PM,60.8,57.2,88,29.90,7.0,Calm,Calm,-,N/A,,Overcast,0,2013-06-27 03:34:00
11:53 PM,60.1,59.0,96,29.91,6.0,Calm,Calm,-,0.00,Rain,Light Rain,0,2013-06-27 03:53:00